Time,TemperatureF,DewpointF,PressureIn,WindDirection,WindDirectionDegrees,WindSpeedMPH,WindSpeedGustMPH,Humidity,HourlyPrecipIn,Conditions,Clouds,dailyrainin,SolarRadiationWatts/m^2,SoftwareType,DateUTC
2013-12-25 00:00:00,27.0,24.7,30.36,SE,134,0.0,0.0,91,0.00,,,0.00,0,Wunderground v.1.15,2013-12-25 06:00:00,
2013-12-25 00:05:00,27.1,25.1,30.36,SE,135,0.0,0.0,92,0.00,,,0.00,0,Wunderground v.1.15,2013-12-25 06:05:00,
2013-12-25 00:10:00,27.2,25.2,30.36,SE,136,0.0,0.0,92,0.00,,,0.00,0,Wunderground v.1.15,2013-12-25 06:10:00,
2013-12-25 00:15:00,27.4,25.4,30.36,SE,136,0.0,0.0,92,0.00,,,0.00,0,Wunderground v.1.15,2013-12-25 06:15:00,
2013-12-25 00:25:00,27.6,25.6,30.35,SE,146,0.0,0.0,92,0.00,,,0.00,0,Wunderground v.1.15,2013-12-25 06:25:00,
2013-12-25 00:30:00,27.7,25.7,30.35,SSE,148,0.0,0.0,92,0.00,,,0.00,0,Wunderground v.1.15,2013-12-25 06:30:00,
2013-12-25 00:35:00,27.7,25.7,30.35,SSE,148,0.0,0.0,92,0.00,,,0.00,0,Wunderground v.1.15,2013-12-25 06:35:00,
2013-12-25 00:45:00,27.8,25.8,30.35,South,178,0.0,4.0,92,0.00,,,0.00,0,Wunderground v.1.15,2013-12-25 06:45:00,
2013-12-25 00:50:00,27.9,25.9,30.35,South,176,1.0,1.0,92,0.00,,,0.00,0,Wunderground v.1.15,2013-12-25 06:50:00,
2013-12-25 00:55:00,28.1,26.1,30.35,South,178,2.0,2.0,92,0.00,,,0.00,0,Wunderground v.1.15,2013-12-25 06:55:00,
2013-12-25 01:00:00,28.1,26.1,30.35,South,186,2.0,5.0,92,0.00,,,0.00,0,Wunderground v.1.15,2013-12-25 07:00:00,
2013-12-25 01:05:00,28.3,26.3,30.35,South,184,2.0,6.0,92,0.00,,,0.00,0,Wunderground v.1.15,2013-12-25 07:05:00,
2013-12-25 01:15:00,28.5,26.5,30.35,South,190,0.0,4.0,92,0.00,,,0.00,0,Wunderground v.1.15,2013-12-25 07:15:00,
2013-12-25 01:20:00,28.6,26.6,30.35,SSW,200,1.0,1.0,92,0.00,,,0.00,0,Wunderground v.1.15,2013-12-25 07:20:00,
2013-12-25 01:25:00,28.8,26.8,30.35,SW,227,2.0,6.0,92,0.00,,,0.00,0,Wunderground v.1.15,2013-12-25 07:25:00,
2013-12-25 01:30:00,28.9,26.9,30.35,SW,236,4.0,4.0,92,0.00,,,0.00,0,Wunderground v.1.15,2013-12-25 07:30:00,
2013-12-25 01:35:00,28.9,26.9,30.35,SW,231,4.0,7.0,92,0.00,,,0.00,0,Wunderground v.1.15,2013-12-25 07:35:00,
2013-12-25 01:40:00,28.9,26.9,30.35,WSW,241,4.0,9.0,92,0.00,,,0.00,0,Wunderground v.1.15,2013-12-25 07:40:00,
2013-12-25 01:45:00,28.9,26.9,30.34,WSW,240,2.0,9.0,92,0.00,,,0.00,0,Wunderground v.1.15,2013-12-25 07:45:00,
2013-12-25 01:50:00,29.0,27.0,30.34,WSW,240,1.0,1.0,92,0.00,,,0.00,0,Wunderground v.1.15,2013-12-25 07:50:00,
2013-12-25 02:00:00,29.1,27.1,30.35,WSW,238,3.0,7.0,92,0.00,,,0.00,0,Wunderground v.1.15,2013-12-25 08:00:00,
2013-12-25 02:05:00,29.2,27.2,30.35,SW,232,4.0,9.0,92,0.00,,,0.00,0,Wunderground v.1.15,2013-12-25 08:05:00,
2013-12-25 02:10:00,29.3,27.3,30.35,SW,234,5.0,12.0,92,0.00,,,0.00,0,Wunderground v.1.15,2013-12-25 08:10:00,
2013-12-25 02:15:00,29.4,27.4,30.36,SW,235,4.0,12.0,92,0.00,,,0.00,0,Wunderground v.1.15,2013-12-25 08:15:00,
2013-12-25 02:25:00,29.3,27.3,30.35,SW,232,3.0,9.0,92,0.00,,,0.00,0,Wunderground v.1.15,2013-12-25 08:25:00,
2013-12-25 02:30:00,29.4,27.4,30.35,SW,232,4.0,4.0,92,0.00,,,0.00,0,Wunderground v.1.15,2013-12-25 08:30:00,
2013-12-25 02:40:00,29.4,27.4,30.36,WSW,238,1.0,1.0,92,0.00,,,0.00,0,Wunderground v.1.15,2013-12-25 08:40:00,
2013-12-25 02:45:00,29.3,27.3,30.35,WSW,238,1.0,7.0,92,0.00,,,0.00,0,Wunderground v.1.15,2013-12-25 08:45:00,
2013-12-25 02:50:00,29.3,27.3,30.35,WSW,242,1.0,1.0,92,0.00,,,0.00,0,Wunderground v.1.15,2013-12-25 08:50:00,
2013-12-25 03:05:00,29.3,27.3,30.35,WSW,239,4.0,4.0,92,0.00,,,0.00,0,Wunderground v.1.15,2013-12-25 09:05:00,
2013-12-25 03:10:00,29.3,27.3,30.35,WSW,239,2.0,6.0,92,0.00,,,0.00,0,Wunderground v.1.15,2013-12-25 09:10:00,
2013-12-25 03:20:00,29.3,27.3,30.35,WSW,239,2.0,6.0,92,0.00,,,0.00,0,Wunderground v.1.15,2013-12-25 09:20:00,
2013-12-25 03:30:00,29.2,27.2,30.35,WSW,239,0.0,1.0,92,0.00,,,0.00,0,Wunderground v.1.15,2013-12-25 09:30:00,
2013-12-25 03:35:00,29.2,27.2,30.35,WSW,239,0.0,0.0,92,0.00,,,0.00,0,Wunderground v.1.15,2013-12-25 09:35:00,
2013-12-25 03:40:00,29.3,27.3,30.36,WSW,240,0.0,3.0,92,0.00,,,0.00,0,Wunderground v.1.15,2013-12-25 09:40:00,
2013-12-25 03:55:00,29.6,27.6,30.36,WSW,243,1.0,1.0,92,0.00,,,0.00,0,Wunderground v.1.15,2013-12-25 09:55:00,
2013-12-25 04:05:00,29.7,27.7,30.35,WSW,244,0.0,3.0,92,0.00,,,0.00,0,Wunderground v.1.15,2013-12-25 10:05:00,
2013-12-25 04:15:00,29.9,27.9,30.35,WSW,245,1.0,1.0,92,0.00,,,0.00,0,Wunderground v.1.15,2013-12-25 10:15:00,
2013-12-25 04:20:00,29.9,28.1,30.35,WSW,245,0.0,5.0,93,0.00,,,0.00,0,Wunderground v.1.15,2013-12-25 10:20:00,
2013-12-25 04:25:00,30.0,28.2,30.35,WSW,245,0.0,5.0,93,0.00,,,0.00,0,Wunderground v.1.15,2013-12-25 10:25:00,
2013-12-25 04:35:00,30.1,28.3,30.35,WSW,245,0.0,2.0,93,0.00,,,0.00,0,Wunderground v.1.15,2013-12-25 10:35:00,
2013-12-25 04:40:00,30.2,28.4,30.35,WSW,245,1.0,4.0,93,0.00,,,0.00,0,Wunderground v.1.15,2013-12-25 10:40:00,
2013-12-25 04:50:00,30.4,28.6,30.35,WSW,245,0.0,2.0,93,0.00,,,0.00,0,Wunderground v.1.15,2013-12-25 10:50:00,
2013-12-25 04:55:00,30.5,28.7,30.35,WSW,246,1.0,4.0,93,0.00,,,0.00,0,Wunderground v.1.15,2013-12-25 10:55:00,
2013-12-25 05:05:00,30.6,28.8,30.35,WSW,249,0.0,1.0,93,0.00,,,0.00,0,Wunderground v.1.15,2013-12-25 11:05:00,
2013-12-25 05:15:00,30.7,28.9,30.35,WSW,254,0.0,0.0,93,0.00,,,0.00,0,Wunderground v.1.15,2013-12-25 11:15:00,
2013-12-25 05:20:00,30.7,28.9,30.35,WSW,254,0.0,0.0,93,0.00,,,0.00,0,Wunderground v.1.15,2013-12-25 11:20:00,
2013-12-25 05:25:00,30.7,28.9,30.35,WSW,254,0.0,0.0,93,0.00,,,0.00,0,Wunderground v.1.15,2013-12-25 11:25:00,
2013-12-25 05:30:00,30.7,28.9,30.35,WSW,254,0.0,0.0,93,0.00,,,0.00,0,Wunderground v.1.15,2013-12-25 11:30:00,
2013-12-25 05:40:00,30.7,28.9,30.35,West,261,0.0,8.0,93,0.00,,,0.00,0,Wunderground v.1.15,2013-12-25 11:40:00,
2013-12-25 05:45:00,30.7,28.9,30.35,West,261,0.0,8.0,93,0.00,,,0.00,0,Wunderground v.1.15,2013-12-25 11:45:00,
2013-12-25 05:50:00,30.7,28.9,30.35,West,261,0.0,0.0,93,0.00,,,0.00,0,Wunderground v.1.15,2013-12-25 11:50:00,
2013-12-25 06:00:00,30.7,28.9,30.34,West,261,0.0,0.0,93,0.00,,,0.00,0,Wunderground v.1.15,2013-12-25 12:00:00,
2013-12-25 06:05:00,30.7,28.9,30.35,West,261,0.0,0.0,93,0.00,,,0.00,0,Wunderground v.1.15,2013-12-25 12:05:00,
2013-12-25 06:15:00,30.7,28.9,30.35,West,261,0.0,0.0,93,0.00,,,0.00,0,Wunderground v.1.15,2013-12-25 12:15:00,
2013-12-25 06:25:00,30.7,28.9,30.35,West,261,0.0,0.0,93,0.00,,,0.00,0,Wunderground v.1.15,2013-12-25 12:25:00,
2013-12-25 06:30:00,30.7,28.9,30.35,West,261,0.0,5.0,93,0.00,,,0.00,0,Wunderground v.1.15,2013-12-25 12:30:00,
2013-12-25 06:35:00,30.7,28.9,30.35,West,272,2.0,5.0,93,0.00,,,0.00,0,Wunderground v.1.15,2013-12-25 12:35:00,
2013-12-25 06:45:00,30.8,29.0,30.35,WNW,284,3.0,7.0,93,0.00,,,0.00,0,Wunderground v.1.15,2013-12-25 12:45:00,
2013-12-25 06:50:00,30.8,28.8,30.35,West,276,3.0,3.0,92,0.00,,,0.00,0,Wunderground v.1.15,2013-12-25 12:50:00,
2013-12-25 06:55:00,30.8,28.8,30.35,West,279,5.0,5.0,92,0.00,,,0.00,0,Wunderground v.1.15,2013-12-25 12:55:00,
2013-12-25 07:05:00,30.7,28.7,30.36,West,275,3.0,15.0,92,0.00,,,0.00,0,Wunderground v.1.15,2013-12-25 13:05:00,
2013-12-25 07:10:00,30.6,28.6,30.35,WNW,290,4.0,9.0,92,0.00,,,0.00,0,Wunderground v.1.15,2013-12-25 13:10:00,
2013-12-25 07:20:00,30.5,28.2,30.35,WNW,292,2.0,2.0,91,0.00,,,0.00,0,Wunderground v.1.15,2013-12-25 13:20:00,
2013-12-25 07:25:00,30.4,28.1,30.35,WNW,292,2.0,5.0,91,0.00,,,0.00,0,Wunderground v.1.15,2013-12-25 13:25:00,
2013-12-25 07:30:00,30.3,28.0,30.35,WNW,292,2.0,2.0,91,0.00,,,0.00,0,Wunderground v.1.15,2013-12-25 13:30:00,
2013-12-25 07:40:00,30.3,28.0,30.36,WNW,294,3.0,9.0,91,0.00,,,0.00,0,Wunderground v.1.15,2013-12-25 13:40:00,
2013-12-25 07:45:00,30.2,27.9,30.37,WNW,302,3.0,9.0,91,0.00,,,0.00,0,Wunderground v.1.15,2013-12-25 13:45:00,
2013-12-25 07:50:00,30.1,27.8,30.37,WNW,302,4.0,11.0,91,0.00,,,0.00,0,Wunderground v.1.15,2013-12-25 13:50:00,
2013-12-25 07:55:00,30.0,27.7,30.37,West,265,6.0,14.0,91,0.00,,,0.00,0,Wunderground v.1.15,2013-12-25 13:55:00,
2013-12-25 08:05:00,29.8,27.5,30.38,WNW,297,6.0,14.0,91,0.00,,,0.00,7,Wunderground v.1.15,2013-12-25 14:05:00,
2013-12-25 08:10:00,29.8,27.5,30.38,West,279,5.0,13.0,91,0.00,,,0.00,11,Wunderground v.1.15,2013-12-25 14:10:00,
2013-12-25 08:20:00,29.7,27.4,30.39,WNW,292,6.0,11.0,91,0.00,,,0.00,18,Wunderground v.1.15,2013-12-25 14:20:00,
2013-12-25 08:30:00,29.5,27.2,30.39,WNW,286,6.0,6.0,91,0.00,,,0.00,21,Wunderground v.1.15,2013-12-25 14:30:00,
2013-12-25 08:35:00,29.5,27.2,30.39,WNW,294,5.0,11.0,91,0.00,,,0.00,25,Wunderground v.1.15,2013-12-25 14:35:00,
2013-12-25 08:40:00,29.4,27.1,30.40,WNW,286,6.0,6.0,91,0.00,,,0.00,26,Wunderground v.1.15,2013-12-25 14:40:00,
2013-12-25 08:45:00,29.4,27.1,30.40,WNW,289,6.0,16.0,91,0.00,,,0.00,28,Wunderground v.1.15,2013-12-25 14:45:00,
2013-12-25 08:55:00,29.3,27.0,30.39,NW,305,4.0,13.0,91,0.00,,,0.00,39,Wunderground v.1.15,2013-12-25 14:55:00,
2013-12-25 09:00:00,29.4,27.1,30.39,WNW,296,2.0,2.0,91,0.00,,,0.00,56,Wunderground v.1.15,2013-12-25 15:00:00,
2013-12-25 09:05:00,29.3,26.7,30.39,WNW,298,4.0,4.0,90,0.00,,,0.00,60,Wunderground v.1.15,2013-12-25 15:05:00,
2013-12-25 09:15:00,29.6,27.3,30.39,WNW,296,1.0,7.0,91,0.00,,,0.00,69,Wunderground v.1.15,2013-12-25 15:15:00,
2013-12-25 09:25:00,29.7,27.1,30.39,West,277,4.0,10.0,90,0.00,,,0.00,90,Wunderground v.1.15,2013-12-25 15:25:00,
2013-12-25 09:30:00,29.7,27.1,30.39,West,274,4.0,9.0,90,0.00,,,0.00,102,Wunderground v.1.15,2013-12-25 15:30:00,
2013-12-25 09:35:00,29.8,27.2,30.40,West,279,5.0,11.0,90,0.00,,,0.00,100,Wunderground v.1.15,2013-12-25 15:35:00,
2013-12-25 09:45:00,30.1,27.5,30.40,West,269,1.0,4.0,90,0.00,,,0.00,98,Wunderground v.1.15,2013-12-25 15:45:00,
2013-12-25 09:50:00,30.3,27.7,30.40,West,268,1.0,1.0,90,0.00,,,0.00,113,Wunderground v.1.15,2013-12-25 15:50:00,
2013-12-25 10:00:00,30.2,27.3,30.40,West,275,3.0,10.0,89,0.00,,,0.00,116,Wunderground v.1.15,2013-12-25 16:00:00,
2013-12-25 10:05:00,30.2,27.3,30.40,West,272,3.0,10.0,89,0.00,,,0.00,128,Wunderground v.1.15,2013-12-25 16:05:00,
2013-12-25 10:10:00,30.3,27.4,30.40,WSW,240,4.0,7.0,89,0.00,,,0.00,146,Wunderground v.1.15,2013-12-25 16:10:00,
2013-12-25 10:20:00,30.3,27.4,30.39,WSW,248,3.0,7.0,89,0.00,,,0.00,167,Wunderground v.1.15,2013-12-25 16:20:00,
2013-12-25 10:25:00,30.2,27.3,30.39,WSW,252,3.0,10.0,89,0.00,,,0.00,158,Wunderground v.1.15,2013-12-25 16:25:00,
2013-12-25 10:30:00,30.3,27.2,30.39,West,263,4.0,10.0,88,0.00,,,0.00,171,Wunderground v.1.15,2013-12-25 16:30:00,
2013-12-25 10:40:00,30.5,27.4,30.39,West,260,4.0,15.0,88,0.00,,,0.00,176,Wunderground v.1.15,2013-12-25 16:40:00,
2013-12-25 10:45:00,30.7,27.6,30.39,West,275,4.0,15.0,88,0.00,,,0.00,167,Wunderground v.1.15,2013-12-25 16:45:00,
2013-12-25 10:55:00,30.7,27.6,30.40,West,271,6.0,13.0,88,0.00,,,0.00,199,Wunderground v.1.15,2013-12-25 16:55:00,
2013-12-25 11:00:00,30.8,27.7,30.40,WSW,252,5.0,5.0,88,0.00,,,0.00,211,Wunderground v.1.15,2013-12-25 17:00:00,
2013-12-25 11:05:00,30.8,27.7,30.39,WSW,250,5.0,11.0,88,0.00,,,0.00,178,Wunderground v.1.15,2013-12-25 17:05:00,
2013-12-25 11:10:00,30.8,27.7,30.39,SW,217,6.0,14.0,88,0.00,,,0.00,220,Wunderground v.1.15,2013-12-25 17:10:00,
2013-12-25 11:15:00,31.0,27.9,30.39,WSW,253,6.0,14.0,88,0.00,,,0.00,253,Wunderground v.1.15,2013-12-25 17:15:00,
2013-12-25 11:20:00,30.9,27.5,30.39,WSW,254,6.0,6.0,87,0.00,,,0.00,190,Wunderground v.1.15,2013-12-25 17:20:00,
2013-12-25 11:30:00,31.3,27.9,30.38,West,269,3.0,7.0,87,0.00,,,0.00,311,Wunderground v.1.15,2013-12-25 17:30:00,
2013-12-25 11:35:00,31.4,28.0,30.38,WSW,255,5.0,12.0,87,0.00,,,0.00,297,Wunderground v.1.15,2013-12-25 17:35:00,
2013-12-25 11:40:00,31.5,28.1,30.37,West,269,4.0,14.0,87,0.00,,,0.00,295,Wunderground v.1.15,2013-12-25 17:40:00,
2013-12-25 11:45:00,31.8,28.4,30.38,West,266,2.0,14.0,87,0.00,,,0.00,281,Wunderground v.1.15,2013-12-25 17:45:00,
2013-12-25 11:55:00,32.8,29.1,30.37,West,277,2.0,7.0,86,0.00,,,0.00,462,Wunderground v.1.15,2013-12-25 17:55:00,
2013-12-25 12:05:00,32.6,28.6,30.36,West,260,4.0,10.0,85,0.00,,,0.00,478,Wunderground v.1.15,2013-12-25 18:05:00,
2013-12-25 12:10:00,32.6,28.6,30.36,WSW,246,5.0,5.0,85,0.00,,,0.00,417,Wunderground v.1.15,2013-12-25 18:10:00,
2013-12-25 12:15:00,32.7,28.7,30.36,WSW,253,4.0,9.0,85,0.00,,,0.00,443,Wunderground v.1.15,2013-12-25 18:15:00,
2013-12-25 12:25:00,33.3,29.3,30.36,West,261,3.0,13.0,85,0.00,,,0.01,439,Wunderground v.1.15,2013-12-25 18:25:00,
2013-12-25 12:30:00,33.4,29.1,30.35,WSW,238,2.0,2.0,84,0.00,,,0.01,448,Wunderground v.1.15,2013-12-25 18:30:00,
2013-12-25 12:35:00,33.9,29.6,30.36,WSW,256,2.0,5.0,84,0.00,,,0.01,443,Wunderground v.1.15,2013-12-25 18:35:00,
2013-12-25 12:45:00,34.2,29.6,30.35,West,271,3.0,6.0,83,0.00,,,0.01,432,Wunderground v.1.15,2013-12-25 18:45:00,
2013-12-25 12:50:00,34.2,29.3,30.34,WSW,248,4.0,4.0,82,0.00,,,0.01,431,Wunderground v.1.15,2013-12-25 18:50:00,
2013-12-25 13:00:00,34.3,29.4,30.34,WSW,250,4.0,4.0,82,0.00,,,0.01,432,Wunderground v.1.15,2013-12-25 19:00:00,
2013-12-25 13:05:00,34.5,29.6,30.34,WSW,246,5.0,7.0,82,0.00,,,0.01,431,Wunderground v.1.15,2013-12-25 19:05:00,
2013-12-25 13:10:00,34.7,29.8,30.34,WSW,247,4.0,12.0,82,0.00,,,0.01,425,Wunderground v.1.15,2013-12-25 19:10:00,
2013-12-25 13:20:00,35.0,30.1,30.33,WSW,244,5.0,5.0,82,0.00,,,0.01,420,Wunderground v.1.15,2013-12-25 19:20:00,
2013-12-25 13:25:00,35.0,29.8,30.33,SW,220,4.0,9.0,81,0.00,,,0.01,417,Wunderground v.1.15,2013-12-25 19:25:00,
2013-12-25 13:30:00,35.0,30.1,30.33,WSW,246,6.0,6.0,82,0.00,,,0.01,411,Wunderground v.1.15,2013-12-25 19:30:00,
2013-12-25 13:40:00,35.3,30.4,30.33,WSW,249,4.0,11.0,82,0.00,,,0.01,401,Wunderground v.1.15,2013-12-25 19:40:00,
2013-12-25 13:45:00,35.5,30.5,30.33,WSW,250,5.0,12.0,82,0.00,,,0.01,396,Wunderground v.1.15,2013-12-25 19:45:00,
2013-12-25 13:55:00,35.9,30.6,30.33,West,273,5.0,14.0,81,0.06,,,0.03,374,Wunderground v.1.15,2013-12-25 19:55:00,
2013-12-25 14:00:00,36.0,30.7,30.33,WSW,246,4.0,4.0,81,0.06,,,0.03,366,Wunderground v.1.15,2013-12-25 20:00:00,
2013-12-25 14:10:00,36.4,31.1,30.33,WSW,256,2.0,2.0,81,0.11,,,0.05,346,Wunderground v.1.15,2013-12-25 20:10:00,
2013-12-25 14:15:00,36.6,31.3,30.33,WSW,244,4.0,6.0,81,0.10,,,0.05,338,Wunderground v.1.15,2013-12-25 20:15:00,
2013-12-25 14:25:00,36.9,31.3,30.33,WSW,254,7.0,7.0,80,0.12,,,0.07,329,Wunderground v.1.15,2013-12-25 20:25:00,
2013-12-25 14:30:00,37.1,31.5,30.33,WNW,283,6.0,6.0,80,0.09,,,0.08,308,Wunderground v.1.15,2013-12-25 20:30:00,
2013-12-25 14:40:00,37.6,31.7,30.33,West,272,4.0,4.0,79,0.08,,,0.09,287,Wunderground v.1.15,2013-12-25 20:40:00,
2013-12-25 14:45:00,37.7,31.5,30.33,WSW,248,5.0,5.0,78,0.06,,,0.10,276,Wunderground v.1.15,2013-12-25 20:45:00,
2013-12-25 14:50:00,37.9,31.7,30.32,WSW,254,5.0,5.0,78,0.06,,,0.10,264,Wunderground v.1.15,2013-12-25 20:50:00,
2013-12-25 15:00:00,38.2,31.9,30.33,WNW,285,5.0,10.0,78,0.06,,,0.11,244,Wunderground v.1.15,2013-12-25 21:00:00,
2013-12-25 15:05:00,38.4,32.1,30.33,WNW,293,3.0,10.0,78,0.06,,,0.12,234,Wunderground v.1.15,2013-12-25 21:05:00,
2013-12-25 15:10:00,38.6,32.0,30.34,West,275,5.0,14.0,77,0.07,,,0.12,225,Wunderground v.1.15,2013-12-25 21:10:00,
2013-12-25 15:20:00,38.7,31.1,30.34,WNW,290,5.0,12.0,74,0.06,,,0.13,197,Wunderground v.1.15,2013-12-25 21:20:00,
2013-12-25 15:25:00,38.6,30.4,30.34,WNW,290,7.0,13.0,72,0.04,,,0.14,183,Wunderground v.1.15,2013-12-25 21:25:00,
2013-12-25 15:30:00,38.6,30.0,30.34,WNW,289,9.0,18.0,71,0.04,,,0.14,171,Wunderground v.1.15,2013-12-25 21:30:00,
2013-12-25 15:40:00,38.4,30.5,30.35,WNW,291,6.0,16.0,73,0.05,,,0.15,139,Wunderground v.1.15,2013-12-25 21:40:00,
2013-12-25 15:45:00,38.2,30.3,30.35,WNW,294,5.0,16.0,73,0.05,,,0.15,121,Wunderground v.1.15,2013-12-25 21:45:00,
2013-12-25 15:50:00,38.0,30.1,30.35,WNW,286,7.0,7.0,73,0.04,,,0.15,107,Wunderground v.1.15,2013-12-25 21:50:00,
2013-12-25 16:00:00,37.6,30.4,30.35,WNW,287,5.0,5.0,75,0.00,,,0.15,83,Wunderground v.1.15,2013-12-25 22:00:00,
2013-12-25 16:10:00,37.3,30.4,30.35,WNW,286,5.0,12.0,76,0.00,,,0.16,56,Wunderground v.1.15,2013-12-25 22:10:00,
2013-12-25 16:20:00,37.1,30.2,30.36,WNW,282,4.0,12.0,76,0.00,,,0.16,37,Wunderground v.1.15,2013-12-25 22:20:00,
2013-12-25 16:25:00,37.2,30.0,30.36,WNW,285,5.0,12.0,75,0.00,,,0.16,28,Wunderground v.1.15,2013-12-25 22:25:00,
2013-12-25 16:35:00,36.8,29.6,30.36,West,281,4.0,11.0,75,0.00,,,0.17,16,Wunderground v.1.15,2013-12-25 22:35:00,
2013-12-25 16:40:00,36.7,29.8,30.36,West,279,3.0,10.0,76,0.00,,,0.17,14,Wunderground v.1.15,2013-12-25 22:40:00,
2013-12-25 16:45:00,36.6,29.4,30.36,West,279,3.0,10.0,75,0.00,,,0.17,12,Wunderground v.1.15,2013-12-25 22:45:00,
2013-12-25 16:50:00,36.4,29.6,30.36,West,277,2.0,7.0,76,0.00,,,0.17,9,Wunderground v.1.15,2013-12-25 22:50:00,
2013-12-25 16:55:00,36.3,29.5,30.36,West,279,1.0,7.0,76,0.00,,,0.17,5,Wunderground v.1.15,2013-12-25 22:55:00,
2013-12-25 17:05:00,35.9,29.4,30.36,West,279,1.0,9.0,77,0.00,,,0.17,0,Wunderground v.1.15,2013-12-25 23:05:00,
2013-12-25 17:15:00,35.6,29.1,30.36,West,277,1.0,5.0,77,0.00,,,0.17,0,Wunderground v.1.15,2013-12-25 23:15:00,
2013-12-25 17:20:00,35.4,28.9,30.36,West,277,1.0,1.0,77,0.00,,,0.17,0,Wunderground v.1.15,2013-12-25 23:20:00,
2013-12-25 17:30:00,35.3,29.1,30.37,West,277,0.0,0.0,78,0.00,,,0.17,0,Wunderground v.1.15,2013-12-25 23:30:00,
2013-12-25 17:40:00,35.2,29.0,30.37,West,275,0.0,5.0,78,0.00,,,0.17,0,Wunderground v.1.15,2013-12-25 23:40:00,
2013-12-25 17:45:00,35.0,28.8,30.37,West,275,0.0,5.0,78,0.00,,,0.17,0,Wunderground v.1.15,2013-12-25 23:45:00,
2013-12-25 17:50:00,35.0,28.8,30.37,West,275,1.0,5.0,78,0.00,,,0.17,0,Wunderground v.1.15,2013-12-25 23:50:00,
2013-12-25 18:00:00,34.8,28.6,30.37,West,274,0.0,5.0,78,0.00,,,0.17,0,Wunderground v.1.15,2013-12-26 00:00:00,
2013-12-25 18:05:00,34.7,28.5,30.37,West,274,0.0,5.0,78,0.00,,,0.17,0,Wunderground v.1.15,2013-12-26 00:05:00,
2013-12-25 18:10:00,34.6,28.4,30.37,West,274,0.0,3.0,78,0.00,,,0.17,0,Wunderground v.1.15,2013-12-26 00:10:00,
2013-12-25 18:20:00,34.4,28.6,30.37,West,273,0.0,3.0,79,0.00,,,0.17,0,Wunderground v.1.15,2013-12-26 00:20:00,
2013-12-25 18:25:00,34.4,28.6,30.37,West,273,0.0,3.0,79,0.00,,,0.17,0,Wunderground v.1.15,2013-12-26 00:25:00,
2013-12-25 18:35:00,34.4,28.6,30.37,West,270,0.0,5.0,79,0.00,,,0.17,0,Wunderground v.1.15,2013-12-26 00:35:00,
2013-12-25 18:40:00,34.4,28.6,30.38,West,270,0.0,4.0,79,0.00,,,0.17,0,Wunderground v.1.15,2013-12-26 00:40:00,
2013-12-25 18:45:00,34.3,28.5,30.37,West,270,0.0,4.0,79,0.00,,,0.17,0,Wunderground v.1.15,2013-12-26 00:45:00,
2013-12-25 18:50:00,34.3,28.5,30.38,West,269,0.0,0.0,79,0.00,,,0.17,0,Wunderground v.1.15,2013-12-26 00:50:00,
2013-12-25 19:00:00,34.3,28.5,30.37,West,267,1.0,1.0,79,0.00,,,0.17,0,Wunderground v.1.15,2013-12-26 01:00:00,
2013-12-25 19:10:00,34.1,28.3,30.37,West,267,0.0,5.0,79,0.00,,,0.17,0,Wunderground v.1.15,2013-12-26 01:10:00,
2013-12-25 19:15:00,34.0,28.2,30.38,West,267,0.0,5.0,79,0.00,,,0.17,0,Wunderground v.1.15,2013-12-26 01:15:00,
2013-12-25 19:20:00,34.0,27.9,30.38,West,267,0.0,5.0,78,0.00,,,0.17,0,Wunderground v.1.15,2013-12-26 01:20:00,
2013-12-25 19:30:00,33.7,27.9,30.38,West,267,0.0,0.0,79,0.00,,,0.17,0,Wunderground v.1.15,2013-12-26 01:30:00,
2013-12-25 19:35:00,33.7,27.9,30.39,West,267,0.0,0.0,79,0.00,,,0.17,0,Wunderground v.1.15,2013-12-26 01:35:00,
2013-12-25 19:45:00,33.6,27.8,30.39,West,267,0.0,0.0,79,0.00,,,0.17,0,Wunderground v.1.15,2013-12-26 01:45:00,
2013-12-25 19:50:00,33.7,27.9,30.39,West,267,0.0,4.0,79,0.00,,,0.17,0,Wunderground v.1.15,2013-12-26 01:50:00,
2013-12-25 19:55:00,33.7,27.9,30.40,West,267,0.0,4.0,79,0.00,,,0.17,0,Wunderground v.1.15,2013-12-26 01:55:00,
2013-12-25 20:05:00,33.3,27.5,30.39,West,267,0.0,0.0,79,0.00,,,0.17,0,Wunderground v.1.15,2013-12-26 02:05:00,
2013-12-25 20:10:00,33.2,27.4,30.40,West,267,0.0,0.0,79,0.00,,,0.17,0,Wunderground v.1.15,2013-12-26 02:10:00,
2013-12-25 20:20:00,33.1,27.6,30.40,West,267,0.0,0.0,80,0.00,,,0.17,0,Wunderground v.1.15,2013-12-26 02:20:00,
2013-12-25 20:25:00,33.2,27.7,30.40,West,267,0.0,0.0,80,0.00,,,0.17,0,Wunderground v.1.15,2013-12-26 02:25:00,
2013-12-25 20:35:00,33.1,27.6,30.40,West,267,0.0,2.0,80,0.00,,,0.17,0,Wunderground v.1.15,2013-12-26 02:35:00,
2013-12-25 20:40:00,33.1,27.6,30.40,West,267,0.0,0.0,80,0.00,,,0.17,0,Wunderground v.1.15,2013-12-26 02:40:00,
2013-12-25 20:50:00,33.1,27.6,30.40,West,267,0.0,0.0,80,0.00,,,0.17,0,Wunderground v.1.15,2013-12-26 02:50:00,
2013-12-25 20:55:00,33.0,27.5,30.40,West,267,0.0,0.0,80,0.00,,,0.17,0,Wunderground v.1.15,2013-12-26 02:55:00,
2013-12-25 21:05:00,32.8,27.3,30.40,West,267,0.0,0.0,80,0.00,,,0.17,0,Wunderground v.1.15,2013-12-26 03:05:00,
2013-12-25 21:10:00,32.6,27.1,30.40,West,267,0.0,3.0,80,0.00,,,0.17,0,Wunderground v.1.15,2013-12-26 03:10:00,
2013-12-25 21:20:00,32.3,26.8,30.40,West,267,0.0,0.0,80,0.00,,,0.17,0,Wunderground v.1.15,2013-12-26 03:20:00,
2013-12-25 21:25:00,32.1,26.9,30.40,West,267,0.0,0.0,81,0.00,,,0.17,0,Wunderground v.1.15,2013-12-26 03:25:00,
2013-12-25 21:30:00,31.8,26.6,30.40,West,267,0.0,0.0,81,0.00,,,0.17,0,Wunderground v.1.15,2013-12-26 03:30:00,
2013-12-25 21:35:00,31.9,26.7,30.41,West,267,0.0,0.0,81,0.00,,,0.17,0,Wunderground v.1.15,2013-12-26 03:35:00,
2013-12-25 21:40:00,32.0,26.8,30.40,West,267,0.0,0.0,81,0.00,,,0.17,0,Wunderground v.1.15,2013-12-26 03:40:00,
2013-12-25 21:50:00,32.0,26.8,30.40,West,267,0.0,0.0,81,0.00,,,0.17,0,Wunderground v.1.15,2013-12-26 03:50:00,
2013-12-25 21:55:00,31.9,26.7,30.40,West,267,0.0,0.0,81,0.00,,,0.17,0,Wunderground v.1.15,2013-12-26 03:55:00,
2013-12-25 22:00:00,31.7,26.5,30.40,West,267,0.0,0.0,81,0.00,,,0.17,0,Wunderground v.1.15,2013-12-26 04:00:00,
2013-12-25 22:10:00,31.1,26.2,30.40,West,267,0.0,0.0,82,0.00,,,0.17,0,Wunderground v.1.15,2013-12-26 04:10:00,
2013-12-25 22:15:00,31.0,26.1,30.40,West,267,0.0,0.0,82,0.00,,,0.17,0,Wunderground v.1.15,2013-12-26 04:15:00,
2013-12-25 22:20:00,30.9,26.3,30.41,West,267,0.0,0.0,83,0.00,,,0.17,0,Wunderground v.1.15,2013-12-26 04:20:00,
2013-12-25 22:30:00,31.0,26.4,30.41,West,267,0.0,0.0,83,0.00,,,0.17,0,Wunderground v.1.15,2013-12-26 04:30:00,
2013-12-25 22:35:00,30.9,26.3,30.41,West,267,0.0,0.0,83,0.00,,,0.17,0,Wunderground v.1.15,2013-12-26 04:35:00,
2013-12-25 22:40:00,30.9,26.3,30.41,West,267,0.0,0.0,83,0.00,,,0.17,0,Wunderground v.1.15,2013-12-26 04:40:00,
2013-12-25 22:45:00,31.0,26.4,30.41,West,267,0.0,0.0,83,0.00,,,0.17,0,Wunderground v.1.15,2013-12-26 04:45:00,
2013-12-25 22:55:00,30.8,26.2,30.41,West,267,0.0,0.0,83,0.00,,,0.17,0,Wunderground v.1.15,2013-12-26 04:55:00,
2013-12-25 23:00:00,30.8,26.5,30.41,West,267,0.0,0.0,84,0.00,,,0.17,0,Wunderground v.1.15,2013-12-26 05:00:00,
2013-12-25 23:05:00,30.7,26.1,30.41,West,267,0.0,0.0,83,0.00,,,0.17,0,Wunderground v.1.15,2013-12-26 05:05:00,
2013-12-25 23:10:00,30.5,26.0,30.41,West,267,0.0,0.0,83,0.00,,,0.17,0,Wunderground v.1.15,2013-12-26 05:10:00,
2013-12-25 23:15:00,30.4,26.1,30.41,West,267,0.0,0.0,84,0.00,,,0.17,0,Wunderground v.1.15,2013-12-26 05:15:00,
2013-12-25 23:25:00,30.4,26.1,30.41,West,267,0.0,0.0,84,0.00,,,0.17,0,Wunderground v.1.15,2013-12-26 05:25:00,
2013-12-25 23:30:00,30.5,26.2,30.40,West,267,0.0,0.0,84,0.00,,,0.17,0,Wunderground v.1.15,2013-12-26 05:30:00,
2013-12-25 23:40:00,30.6,26.3,30.40,West,267,0.0,0.0,84,0.00,,,0.17,0,Wunderground v.1.15,2013-12-26 05:40:00,
2013-12-25 23:45:00,30.6,26.3,30.40,West,267,0.0,0.0,84,0.00,,,0.17,0,Wunderground v.1.15,2013-12-26 05:45:00,
2013-12-25 23:50:00,30.5,26.2,30.40,West,267,0.0,0.0,84,0.00,,,0.17,0,Wunderground v.1.15,2013-12-26 05:50:00,